EZY37B EGKK-LFST

Flight info

Callsign EZY37B
Flight time 1h 9m
Altitude 29000
Route SFD Y47 BENBO L612 HAWKE UL612 VEULE DCT TEPRI UN491 POGZI DCT GELTA DCT LUVAL/N0421F280 DCT EPL
Aircraft A319/M-SDE3FGHIRWY/LB1

Departure

Time 2026-05-08 07:29
Airport London Gatwick Airport (EGKK)

Arrival

Time 2026-05-08 08:38
Airport Strasbourg Airport (LFST)
Time Latitude Longitude Altitude Speed Heading
2026-05-08 06:44 51.15361 -0.16337 211 ft 0 kts 357°
2026-05-08 07:12 51.15356 -0.16336 210 ft 3 kts 358°
2026-05-08 07:12 51.15332 -0.16335 210 ft 3 kts 353°
2026-05-08 07:12 51.15319 -0.16315 210 ft 3 kts 264°
2026-05-08 07:13 51.15324 -0.16278 210 ft 2 kts 257°
2026-05-08 07:13 51.15324 -0.16276 210 ft 0 kts 257°
2026-05-08 07:17 51.15322 -0.16295 210 ft 2 kts 258°
2026-05-08 07:18 51.15316 -0.16332 210 ft 5 kts 257°
2026-05-08 07:18 51.15308 -0.16396 210 ft 6 kts 259°
2026-05-08 07:18 51.15312 -0.16459 210 ft 6 kts 319°
2026-05-08 07:18 51.15351 -0.16477 210 ft 6 kts 347°
2026-05-08 07:19 51.15392 -0.16493 210 ft 6 kts 345°
2026-05-08 07:19 51.15412 -0.16541 210 ft 6 kts 266°
2026-05-08 07:19 51.15401 -0.16624 210 ft 9 kts 258°
2026-05-08 07:19 51.15387 -0.16728 210 ft 10 kts 255°
2026-05-08 07:20 51.15372 -0.16832 210 ft 10 kts 258°
2026-05-08 07:20 51.15358 -0.16934 210 ft 10 kts 257°
2026-05-08 07:20 51.15343 -0.17040 210 ft 10 kts 258°
2026-05-08 07:20 51.15328 -0.17154 210 ft 11 kts 257°
2026-05-08 07:21 51.15308 -0.17299 210 ft 15 kts 262°
2026-05-08 07:21 51.15295 -0.17477 210 ft 16 kts 259°
2026-05-08 07:21 51.15269 -0.17662 210 ft 19 kts 257°
2026-05-08 07:21 51.15242 -0.17866 210 ft 19 kts 258°
2026-05-08 07:22 51.15214 -0.18074 210 ft 19 kts 257°
2026-05-08 07:22 51.15186 -0.18285 210 ft 20 kts 264°
2026-05-08 07:22 51.15161 -0.18500 210 ft 19 kts 257°
2026-05-08 07:22 51.15133 -0.18711 210 ft 20 kts 257°
2026-05-08 07:23 51.15103 -0.18928 210 ft 20 kts 257°
2026-05-08 07:23 51.15073 -0.19146 210 ft 21 kts 258°
2026-05-08 07:23 51.15046 -0.19343 210 ft 18 kts 258°
2026-05-08 07:23 51.15019 -0.19539 210 ft 18 kts 258°
2026-05-08 07:24 51.14990 -0.19740 210 ft 19 kts 256°
2026-05-08 07:24 51.14963 -0.19944 210 ft 19 kts 257°
2026-05-08 07:24 51.14934 -0.20153 210 ft 20 kts 257°
2026-05-08 07:24 51.14905 -0.20365 210 ft 20 kts 258°
2026-05-08 07:25 51.14875 -0.20582 210 ft 20 kts 258°
2026-05-08 07:25 51.14845 -0.20803 210 ft 21 kts 259°
2026-05-08 07:25 51.14794 -0.21148 210 ft 12 kts 241°
2026-05-08 07:26 51.14770 -0.21268 210 ft 12 kts 257°
2026-05-08 07:26 51.14753 -0.21382 210 ft 8 kts 241°
2026-05-08 07:26 51.14707 -0.21397 210 ft 8 kts 162°
2026-05-08 07:26 51.14660 -0.21359 210 ft 8 kts 136°
2026-05-08 07:27 51.14615 -0.21324 210 ft 7 kts 167°
2026-05-08 07:27 51.14565 -0.21301 210 ft 8 kts 153°
2026-05-08 07:27 51.14528 -0.21242 210 ft 8 kts 117°
2026-05-08 07:27 51.14520 -0.21167 210 ft 5 kts 77°
2026-05-08 07:28 51.14521 -0.21159 210 ft 0 kts 76°
2026-05-08 07:28 51.14522 -0.21157 210 ft 2 kts 76°
2026-05-08 07:28 51.14585 -0.20696 211 ft 88 kts 74°
2026-05-08 07:28 51.14777 -0.19349 234 ft 154 kts 81°
2026-05-08 07:29 51.14987 -0.17666 895 ft 160 kts 79°
2026-05-08 07:29 51.15222 -0.16006 1576 ft 150 kts 77°
2026-05-08 07:29 51.15457 -0.14315 2208 ft 164 kts 79°
2026-05-08 07:29 51.15715 -0.12429 2882 ft 183 kts 81°
2026-05-08 07:30 51.15991 -0.10343 3543 ft 201 kts 83°
2026-05-08 07:30 51.15987 -0.08043 4218 ft 218 kts 107°
2026-05-08 07:30 51.15194 -0.05901 4954 ft 236 kts 139°
2026-05-08 07:30 51.13687 -0.04652 5626 ft 254 kts 166°
2026-05-08 07:31 51.11920 -0.04169 6019 ft 259 kts 172°
2026-05-08 07:31 51.10138 -0.03770 6033 ft 258 kts 171°
2026-05-08 07:31 51.08394 -0.03120 6045 ft 259 kts 164°
2026-05-08 07:31 51.06694 -0.02277 6057 ft 259 kts 162°
2026-05-08 07:32 51.04982 -0.01398 6070 ft 259 kts 163°
2026-05-08 07:32 51.03259 -0.00563 6085 ft 258 kts 164°
2026-05-08 07:32 51.01528 0.00233 6102 ft 259 kts 164°
2026-05-08 07:32 50.99763 0.01036 6102 ft 267 kts 164°
2026-05-08 07:33 50.97977 0.01860 6096 ft 267 kts 163°
2026-05-08 07:33 50.96195 0.02709 6093 ft 267 kts 163°
2026-05-08 07:33 50.94414 0.03570 6091 ft 267 kts 163°
2026-05-08 07:33 50.92651 0.04404 6089 ft 267 kts 163°
2026-05-08 07:34 50.90864 0.05236 6087 ft 267 kts 163°
2026-05-08 07:34 50.89078 0.06074 6087 ft 267 kts 163°
2026-05-08 07:34 50.87292 0.06916 6087 ft 267 kts 163°
2026-05-08 07:34 50.85507 0.07756 6087 ft 267 kts 163°
2026-05-08 07:35 50.83724 0.08597 6087 ft 267 kts 163°
2026-05-08 07:35 50.81938 0.09435 6087 ft 267 kts 163°
2026-05-08 07:35 50.80150 0.10267 6087 ft 267 kts 163°
2026-05-08 07:35 50.78367 0.11102 6088 ft 267 kts 163°
2026-05-08 07:36 50.76574 0.11878 6083 ft 267 kts 169°
2026-05-08 07:36 50.74723 0.11881 6148 ft 267 kts 189°
2026-05-08 07:36 50.72916 0.11196 6650 ft 269 kts 195°
2026-05-08 07:36 50.71118 0.10407 7486 ft 273 kts 195°
2026-05-08 07:37 50.69263 0.09667 8352 ft 277 kts 193°
2026-05-08 07:37 50.67365 0.09000 9191 ft 282 kts 192°
2026-05-08 07:37 50.65432 0.08339 10031 ft 285 kts 193°
2026-05-08 07:37 50.63474 0.07647 10789 ft 292 kts 194°
2026-05-08 07:38 50.61443 0.06906 11279 ft 308 kts 194°
2026-05-08 07:38 50.59292 0.06116 11742 ft 324 kts 194°
2026-05-08 07:38 50.57049 0.05301 12178 ft 338 kts 194°
2026-05-08 07:38 50.54723 0.04463 12783 ft 346 kts 194°
2026-05-08 07:39 50.52366 0.03618 13498 ft 349 kts 194°
2026-05-08 07:39 50.49986 0.02766 14212 ft 352 kts 194°
2026-05-08 07:39 50.47579 0.01978 14895 ft 355 kts 189°
2026-05-08 07:39 50.45127 0.01967 15546 ft 361 kts 173°
2026-05-08 07:40 50.42737 0.03208 16175 ft 367 kts 154°
2026-05-08 07:40 50.40562 0.05345 16802 ft 371 kts 147°
2026-05-08 07:40 50.38442 0.07692 17405 ft 374 kts 146°
2026-05-08 07:40 50.36315 0.10072 18006 ft 377 kts 147°
2026-05-08 07:41 50.34146 0.12411 18572 ft 379 kts 148°
2026-05-08 07:41 50.31936 0.14690 19119 ft 382 kts 149°
2026-05-08 07:41 50.29696 0.16945 19652 ft 384 kts 149°
2026-05-08 07:41 50.27438 0.19222 20171 ft 387 kts 149°
2026-05-08 07:42 50.25172 0.21534 20678 ft 390 kts 149°
2026-05-08 07:42 50.22904 0.23876 21162 ft 393 kts 148°
2026-05-08 07:42 50.20615 0.26240 21640 ft 395 kts 149°
2026-05-08 07:42 50.18334 0.28586 22096 ft 398 kts 149°
2026-05-08 07:43 50.16015 0.30971 22549 ft 400 kts 149°
2026-05-08 07:43 50.13677 0.33371 22989 ft 403 kts 149°
2026-05-08 07:43 50.11328 0.35783 23415 ft 405 kts 149°
2026-05-08 07:43 50.08971 0.38206 23834 ft 408 kts 149°
2026-05-08 07:44 50.06590 0.40647 24237 ft 410 kts 149°
2026-05-08 07:44 50.04190 0.43100 24618 ft 413 kts 149°
2026-05-08 07:44 50.01818 0.45519 25109 ft 412 kts 149°
2026-05-08 07:44 49.99419 0.47966 25612 ft 411 kts 149°
2026-05-08 07:45 49.97027 0.50405 26118 ft 410 kts 149°
2026-05-08 07:45 49.94644 0.52833 26594 ft 409 kts 149°
2026-05-08 07:45 49.92269 0.55249 27055 ft 408 kts 149°
2026-05-08 07:45 49.89889 0.57667 27522 ft 408 kts 149°
2026-05-08 07:46 49.87515 0.60079 27969 ft 407 kts 149°
2026-05-08 07:46 49.85240 0.62712 28409 ft 409 kts 140°
2026-05-08 07:46 49.83226 0.65860 28845 ft 410 kts 136°
2026-05-08 07:46 49.81336 0.69103 29067 ft 410 kts 134°
2026-05-08 07:47 49.79463 0.72419 29075 ft 409 kts 134°
2026-05-08 07:47 49.75660 0.79012 29081 ft 410 kts 135°
2026-05-08 07:48 49.71787 0.85474 29085 ft 410 kts 136°
2026-05-08 07:48 49.67929 0.91948 29085 ft 409 kts 135°
2026-05-08 07:49 49.64079 0.98449 29091 ft 409 kts 135°
2026-05-08 07:49 49.60244 1.04871 29079 ft 410 kts 135°
2026-05-08 07:50 49.56377 1.11339 29064 ft 410 kts 135°
2026-05-08 07:50 49.52504 1.17798 29058 ft 410 kts 135°
2026-05-08 07:51 49.48631 1.24243 29037 ft 411 kts 136°
2026-05-08 07:51 49.44749 1.30681 29051 ft 410 kts 136°
2026-05-08 07:52 49.41516 1.36037 29041 ft 411 kts 136°
2026-05-08 07:52 49.37626 1.42462 29043 ft 411 kts 136°
2026-05-08 07:53 49.33728 1.48876 29046 ft 411 kts 136°
2026-05-08 07:53 49.29862 1.55252 29050 ft 411 kts 136°
2026-05-08 07:54 49.25959 1.61645 29054 ft 411 kts 136°
2026-05-08 07:54 49.22051 1.68027 29051 ft 411 kts 136°
2026-05-08 07:55 49.18138 1.74415 29051 ft 411 kts 136°
2026-05-08 07:55 49.14224 1.80794 29048 ft 411 kts 136°
2026-05-08 07:56 49.10305 1.87156 29056 ft 411 kts 136°
2026-05-08 07:56 49.06423 1.93443 29062 ft 411 kts 136°
2026-05-08 07:57 49.02484 1.99804 29075 ft 411 kts 136°
2026-05-08 07:57 48.98555 2.06131 29081 ft 411 kts 136°
2026-05-08 07:58 48.94615 2.12478 29051 ft 412 kts 136°
2026-05-08 07:58 48.90673 2.18794 29074 ft 411 kts 136°
2026-05-08 07:59 48.86732 2.25096 29062 ft 411 kts 136°
2026-05-08 07:59 48.82816 2.31339 29069 ft 411 kts 136°
2026-05-08 08:00 48.78863 2.37633 29086 ft 411 kts 136°
2026-05-08 08:00 48.74920 2.43896 29095 ft 411 kts 136°
2026-05-08 08:01 48.70965 2.50164 29102 ft 411 kts 136°
2026-05-08 08:01 48.67014 2.56408 29108 ft 411 kts 136°
2026-05-08 08:02 48.63060 2.62644 29115 ft 411 kts 137°
2026-05-08 08:02 48.59123 2.68838 29123 ft 411 kts 136°
2026-05-08 08:03 48.55714 2.75759 29112 ft 418 kts 116°
2026-05-08 08:03 48.54918 2.79994 29090 ft 423 kts 99°
2026-05-08 08:03 48.54731 2.84442 29091 ft 425 kts 94°
2026-05-08 08:04 48.54636 2.93360 29092 ft 425 kts 93°
2026-05-08 08:04 48.54363 3.02266 29092 ft 425 kts 96°
2026-05-08 08:05 48.53997 3.11117 29079 ft 425 kts 95°
2026-05-08 08:05 48.53691 3.20036 29063 ft 426 kts 95°
2026-05-08 08:06 48.53383 3.28975 29077 ft 425 kts 95°
2026-05-08 08:06 48.53046 3.37882 29067 ft 425 kts 95°
2026-05-08 08:07 48.52714 3.46747 29097 ft 424 kts 95°
2026-05-08 08:07 48.52374 3.55639 29118 ft 424 kts 95°
2026-05-08 08:08 48.52024 3.64535 29075 ft 424 kts 95°
2026-05-08 08:08 48.51669 3.73433 29035 ft 425 kts 95°
2026-05-08 08:09 48.51310 3.82325 29040 ft 425 kts 95°
2026-05-08 08:09 48.50946 3.91168 29040 ft 425 kts 95°
2026-05-08 08:10 48.50565 4.00059 29078 ft 424 kts 96°
2026-05-08 08:10 48.49374 4.08712 29064 ft 422 kts 108°
2026-05-08 08:11 48.47756 4.17213 29086 ft 421 kts 108°
2026-05-08 08:11 48.46170 4.25728 29089 ft 422 kts 107°
2026-05-08 08:12 48.44630 4.34265 29108 ft 422 kts 107°
2026-05-08 08:12 48.43065 4.42776 29125 ft 422 kts 108°
2026-05-08 08:13 48.41483 4.51284 29125 ft 422 kts 108°
2026-05-08 08:13 48.39894 4.59797 29121 ft 422 kts 108°
2026-05-08 08:14 48.38306 4.68302 29109 ft 423 kts 108°
2026-05-08 08:14 48.36709 4.76820 29105 ft 423 kts 108°
2026-05-08 08:15 48.35109 4.85314 29104 ft 423 kts 108°
2026-05-08 08:15 48.33496 4.93810 29084 ft 423 kts 108°
2026-05-08 08:16 48.31887 5.02253 29064 ft 423 kts 108°
2026-05-08 08:16 48.30297 5.10601 29056 ft 406 kts 108°
2026-05-08 08:17 48.29401 5.18883 29058 ft 406 kts 91°
2026-05-08 08:17 48.29681 5.27354 28972 ft 405 kts 87°
2026-05-08 08:17 48.29870 5.31558 28609 ft 401 kts 88°
2026-05-08 08:18 48.30022 5.35730 28042 ft 399 kts 89°
2026-05-08 08:18 48.30133 5.39888 27479 ft 398 kts 89°
2026-05-08 08:18 48.30229 5.44053 26932 ft 398 kts 89°
2026-05-08 08:18 48.30327 5.48205 26412 ft 398 kts 89°
2026-05-08 08:19 48.30437 5.52350 25902 ft 397 kts 89°
2026-05-08 08:19 48.30555 5.56478 25403 ft 395 kts 88°
2026-05-08 08:19 48.30672 5.60592 24925 ft 393 kts 89°
2026-05-08 08:19 48.30782 5.64686 24426 ft 391 kts 89°
2026-05-08 08:20 48.30886 5.68768 23928 ft 390 kts 89°
2026-05-08 08:20 48.30985 5.72828 23461 ft 388 kts 89°
2026-05-08 08:20 48.31085 5.76868 23006 ft 386 kts 88°
2026-05-08 08:20 48.31186 5.80889 22547 ft 384 kts 88°
2026-05-08 08:21 48.31282 5.84894 22082 ft 383 kts 88°
2026-05-08 08:21 48.31379 5.88883 21644 ft 381 kts 88°
2026-05-08 08:21 48.31474 5.92853 21214 ft 379 kts 88°
2026-05-08 08:21 48.31565 5.96800 20785 ft 377 kts 88°
2026-05-08 08:22 48.31656 6.00686 20362 ft 376 kts 88°
2026-05-08 08:22 48.31748 6.04655 19933 ft 374 kts 88°
2026-05-08 08:22 48.31838 6.08528 19526 ft 373 kts 88°
2026-05-08 08:22 48.31928 6.12399 19118 ft 371 kts 88°
2026-05-08 08:23 48.32016 6.16270 18711 ft 370 kts 88°
2026-05-08 08:23 48.32101 6.20114 18306 ft 365 kts 88°
2026-05-08 08:23 48.32183 6.23904 17922 ft 361 kts 87°
2026-05-08 08:23 48.32266 6.27646 17559 ft 356 kts 87°
2026-05-08 08:24 48.32350 6.31346 17191 ft 351 kts 88°
2026-05-08 08:24 48.32430 6.34993 16827 ft 347 kts 88°
2026-05-08 08:24 48.32505 6.38605 16467 ft 344 kts 88°
2026-05-08 08:24 48.32577 6.42175 16115 ft 340 kts 88°
2026-05-08 08:25 48.32648 6.45704 15794 ft 335 kts 88°
2026-05-08 08:25 48.32717 6.49137 15481 ft 331 kts 88°
2026-05-08 08:25 48.32784 6.52586 15155 ft 330 kts 88°
2026-05-08 08:25 48.32852 6.56055 14767 ft 332 kts 88°
2026-05-08 08:26 48.32917 6.59526 14376 ft 333 kts 88°
2026-05-08 08:26 48.32984 6.63011 13997 ft 334 kts 88°
2026-05-08 08:26 48.33049 6.66492 13637 ft 330 kts 89°
2026-05-08 08:26 48.33109 6.69870 13404 ft 317 kts 89°
2026-05-08 08:27 48.33169 6.73159 13068 ft 315 kts 89°
2026-05-08 08:27 48.33226 6.76447 12720 ft 315 kts 89°
2026-05-08 08:27 48.33283 6.79743 12373 ft 315 kts 89°
2026-05-08 08:27 48.33338 6.82989 12184 ft 305 kts 89°
2026-05-08 08:28 48.33389 6.86077 12093 ft 293 kts 89°
2026-05-08 08:28 48.33440 6.89075 12035 ft 281 kts 89°
2026-05-08 08:28 48.33489 6.91964 11820 ft 275 kts 89°
2026-05-08 08:28 48.33534 6.94840 11443 ft 275 kts 89°
2026-05-08 08:29 48.33577 6.97715 11117 ft 274 kts 89°
2026-05-08 08:29 48.33619 7.00560 10780 ft 272 kts 89°
2026-05-08 08:29 48.33667 7.03382 10463 ft 268 kts 89°
2026-05-08 08:29 48.33712 7.06186 10025 ft 267 kts 89°
2026-05-08 08:30 48.33752 7.08974 9661 ft 265 kts 90°
2026-05-08 08:30 48.33788 7.11738 9312 ft 264 kts 90°
2026-05-08 08:30 48.33868 7.17206 8618 ft 259 kts 90°
2026-05-08 08:31 48.33905 7.19909 8267 ft 257 kts 90°
2026-05-08 08:31 48.33942 7.22581 7912 ft 255 kts 90°
2026-05-08 08:31 48.33980 7.25236 7572 ft 252 kts 90°
2026-05-08 08:31 48.34112 7.27801 7418 ft 241 kts 76°
2026-05-08 08:32 48.34776 7.30002 7313 ft 229 kts 58°
2026-05-08 08:32 48.35719 7.31898 7071 ft 224 kts 51°
2026-05-08 08:32 48.36732 7.33678 6771 ft 223 kts 49°
2026-05-08 08:32 48.37753 7.35376 6617 ft 212 kts 48°
2026-05-08 08:33 48.38714 7.36971 6488 ft 199 kts 49°
2026-05-08 08:33 48.39606 7.38502 6170 ft 191 kts 50°
2026-05-08 08:33 48.40459 7.39979 5819 ft 182 kts 50°
2026-05-08 08:33 48.41286 7.41386 5443 ft 177 kts 49°
2026-05-08 08:34 48.42084 7.42736 5068 ft 172 kts 49°
2026-05-08 08:34 48.42876 7.44088 4612 ft 173 kts 50°
2026-05-08 08:34 48.43676 7.45460 4114 ft 175 kts 50°
2026-05-08 08:34 48.44483 7.46836 3609 ft 174 kts 50°
2026-05-08 08:35 48.45276 7.48185 3197 ft 167 kts 50°
2026-05-08 08:35 48.46013 7.49448 2989 ft 152 kts 50°
2026-05-08 08:35 48.46690 7.50604 2741 ft 142 kts 49°
2026-05-08 08:35 48.47324 7.51687 2515 ft 134 kts 49°
2026-05-08 08:36 48.47936 7.52734 2312 ft 133 kts 49°
2026-05-08 08:36 48.48545 7.53776 2105 ft 132 kts 49°
2026-05-08 08:36 48.49152 7.54818 1903 ft 132 kts 47°
2026-05-08 08:36 48.49764 7.55868 1694 ft 133 kts 46°
2026-05-08 08:37 48.50397 7.56948 1454 ft 138 kts 47°
2026-05-08 08:37 48.51020 7.58021 1237 ft 134 kts 47°
2026-05-08 08:37 48.51629 7.59057 1035 ft 131 kts 47°
2026-05-08 08:37 48.52033 7.59735 905 ft 131 kts 46°
2026-05-08 08:38 48.52632 7.60753 699 ft 129 kts 46°
2026-05-08 08:38 48.53213 7.61762 530 ft 125 kts 47°
2026-05-08 08:38 48.53685 7.62564 519 ft 63 kts 51°
2026-05-08 08:38 48.53880 7.62903 519 ft 39 kts 51°
2026-05-08 08:39 48.54056 7.63214 519 ft 38 kts 49°
2026-05-08 08:39 48.54199 7.63406 519 ft 16 kts 341°
2026-05-08 08:39 48.54281 7.63302 519 ft 16 kts 308°
2026-05-08 08:39 48.54308 7.63164 519 ft 13 kts 289°
2026-05-08 08:40 48.54367 7.63087 519 ft 12 kts 315°
2026-05-08 08:40 48.54414 7.62985 519 ft 9 kts 312°
2026-05-08 08:40 48.54435 7.62943 519 ft 4 kts 304°
2026-05-08 08:40 48.54444 7.62921 519 ft 2 kts 303°
2026-05-08 08:41 48.54450 7.62907 519 ft 0 kts 303°